61P/Shajn-Schaldach (2022)

Japanese version
Home page
Updated on November 26, 2022

---------------------------------------------------------------------

* Profile

* Pictures

* Orbital Elements

Epoch 2022 Aug. 9.0 TT = JDT 2459800.5
T 2022 Oct. 23.85973 TT                                 Rudenko
q   2.1257666            (2000.0)            P               Q
n   0.13891771     Peri.  221.67797     +0.90785500     -0.41816468
a   3.6923057      Node   162.96523     +0.40701017     +0.86138431
e   0.4242712      Incl.    5.99969     +0.10070759     +0.28836674
P   7.09
>From 2278 observations 2000 Apr. 22-2022 Nov. 4, mean residual 1".0.
     Nongravitational parameters A1 = -0.15, A2 = -0.2706.

* Finding Charts

* Magnitudes Graph

        m1 = 12.0 + 5 log d + 10.0 log r

---------------------------------------------------------------------

The orbital elements are published on M.P.E.C. 2022-V95.
The charts are made with StellaNavigator Ver.10 (AstroArts).
The magnitudes graphs are made with Comet for Windows.

---------------------------------------------------------------------

Copyright(C) Seiichi Yoshida (comet@aerith.net). All rights reserved.